This is the latest recevied weather packets stored in our database for station/object KG4YZY-1. If no packets are shown the sender has not sent any weather packets the latest 10 day(s).
| Time | Temp. | Humidity | Pressure | Rain* | Wind** | Luminosity | Snow |
|---|---|---|---|---|---|---|---|
| 1787671804 | 29.44° C | 86% | 1019.8 hPa | 0 mm | - | - | - |
| 1787671503 | 28.89° C | 88% | 1019.9 hPa | 0 mm | - | - | - |
| 1787671203 | 28.33° C | 90% | 1020.1 hPa | 0 mm | - | - | - |
| 1787670904 | 27.78° C | 92% | 1020.2 hPa | 0 mm | - | - | - |
| 1787670605 | 26.67° C | 93% | 1020.2 hPa | 0 mm | - | - | - |
| 1787670304 | 26.67° C | 93% | 1020.1 hPa | 0 mm | - | - | - |
| 1787670004 | 26.11° C | 93% | 1020.1 hPa | 0 mm | - | - | - |
| 1787669704 | 26.11° C | 93% | 1020.1 hPa | 0 mm | - | - | - |
| 1787669404 | 26.11° C | 94% | 1020.1 hPa | 0 mm | - | - | - |
| 1787669104 | 26.11° C | 94% | 1019.9 hPa | 0 mm | - | - | - |
| 1787668804 | 25.56° C | 94% | 1019.8 hPa | 0 mm | - | - | - |
| 1787668503 | 25.56° C | 94% | 1019.8 hPa | 0 mm | - | - | - |
| 1787668203 | 25.56° C | 94% | 1019.7 hPa | 0 mm | - | - | - |
| 1787667904 | 25.56° C | 94% | 1019.8 hPa | 0 mm | - | - | - |
| 1787667604 | 25.56° C | 94% | 1019.8 hPa | 0 mm | - | - | - |
| 1787667304 | 25.56° C | 94% | 1019.8 hPa | 0 mm | - | - | - |
| 1787667004 | 25.56° C | 94% | 1019.8 hPa | 0 mm | - | - | - |
| 1787666704 | 25° C | 94% | 1019.8 hPa | 0 mm | - | - | - |
| 1787666403 | 25° C | 94% | 1019.8 hPa | 0 mm | - | - | - |
| 1787666104 | 25° C | 94% | 1019.8 hPa | 0 mm | - | - | - |
| 1787665803 | 25° C | 94% | 1019.8 hPa | 0 mm | - | - | - |
| 1787665504 | 25° C | 94% | 1019.7 hPa | 0 mm | - | - | - |
| 1787665204 | 25° C | 94% | 1019.6 hPa | 0 mm | - | - | - |
| 1787664903 | 25° C | 94% | 1019.5 hPa | 0 mm | - | - | - |
| 1787664604 | 25° C | 94% | 1019.5 hPa | 0 mm | - | - | - |
* Rain latest hour (hover to see other rain measurements)
** Current wind speed in m/s (hover to see current wind gust speed)